St. Thomas, VI

6:14 AM AST on February 21, 2018 (GMT -0400)
King

Weather History for TIST - February, 2014

Change the Weather History Date:

Monday, February 3, 2014

  Actual Average Record
Temperature  
Mean Temperature 79 °F 79 °F  
Max Temperature 85 °F 85 °F 91 °F (1995)
Min Temperature 73 °F 73 °F 65 °F (1986)
Degree Days  
Heating Degree Days 0 0  
Month to date heating degree days 0 0  
Since 1 July heating degree days 0 0  
Cooling Degree Days 14 14  
Month to date cooling degree days 42 42  
Year to date cooling degree days 463 470  
Growing Degree Days 28 (Base 50)    
Moisture  
Dew Point 70 °F    
Average Humidity 76    
Maximum Humidity 87    
Minimum Humidity 65    
Precipitation  
Precipitation 0.04 in 0.05 in 1.12 in (1956)
Month to date precipitation 0.45 0.16  
Year to date precipitation 1.47 2.54  
Sea Level Pressure  
Sea Level Pressure 30.01 in    
Wind  
Wind Speed 12 mph (East)    
Max Wind Speed 22 mph    
Max Gust Speed 26 mph    
Visibility 10 miles    
Events Rain    
T = Trace of Precipitation, MM = Missing Value Source: NWS Daily Summary

Daily Weather History Graph

Daily Weather History Graph

Search for Another Location

Airport or City:

Trip Planner

Search our weather history database for the weather conditions in past years. The results will help you decide how hot, cold, wet, or windy it might be!

Date:

Astronomy

Feb. 03, 2014 Rise Set
Actual Time 6:52 AM AST 6:15 PM AST
Civil Twilight 6:29 AM AST 6:37 PM AST
Nautical Twilight 6:03 AM AST 7:03 PM AST
Astronomical Twilight 5:37 AM AST 7:29 PM AST
Moon 9:34 AM AST (2/3) 10:13 PM AST (2/3)
Length of Visible Light 12h 07m
Length of Day
11h 22m
Waxing Crescent, 19% of the Moon is Illuminated
Feb 3
Waxing Crescent
Feb 6
First Quarter
Feb 14
Full
Feb 22
Last Quarter
Mar 1
New

Hourly Weather History & Observations

Time (AST) Temp. Heat Index Dew Point Humidity Pressure Visibility Wind Dir Wind Speed Gust Speed Precip Events Conditions
12:53 AM 75.0 °F - 69.1 °F 82% 30.01 in 10.0 mi East 11.5 mph - N/A   Partly Cloudy
1:53 AM 75.0 °F - 69.1 °F 82% 30.00 in 10.0 mi ESE 10.4 mph - N/A   Clear
2:53 AM 75.0 °F - 69.1 °F 82% 29.98 in 10.0 mi East 12.7 mph - N/A   Clear
3:53 AM 75.9 °F - 70.0 °F 82% 29.98 in 10.0 mi SE 16.1 mph - N/A   Mostly Cloudy
4:53 AM 75.0 °F - 69.1 °F 82% 29.98 in 10.0 mi ESE 6.9 mph - N/A   Clear
5:53 AM 73.9 °F - 70.0 °F 87% 29.99 in 10.0 mi East 4.6 mph - 0.03 in   Scattered Clouds
6:53 AM 73.9 °F - 69.1 °F 85% 30.00 in 10.0 mi East 9.2 mph - 0.00 in   Mostly Cloudy
7:53 AM 75.9 °F - 71.1 °F 85% 30.02 in 10.0 mi East 6.9 mph - N/A   Partly Cloudy
8:53 AM 80.1 °F 83.2 °F 70.0 °F 71% 30.04 in 10.0 mi ESE 9.2 mph - N/A   Clear
9:53 AM 82.0 °F 85.9 °F 70.0 °F 67% 30.06 in 10.0 mi East 15.0 mph 24.2 mph N/A   Partly Cloudy
10:53 AM 82.0 °F 86.3 °F 71.1 °F 69% 30.05 in 10.0 mi ESE 12.7 mph 21.9 mph N/A   Mostly Cloudy
11:06 AM 80.6 °F 84.6 °F 71.6 °F 74% 30.05 in 10.0 mi East 13.8 mph - N/A Rain Light Rain
11:21 AM 80.6 °F 83.9 °F 69.8 °F 70% - 10.0 mi East 16.1 mph 23.0 mph 0.00 in   Mostly Cloudy
11:53 AM 82.9 °F 87.0 °F 70.0 °F 65% 30.04 in 10.0 mi East 13.8 mph 23.0 mph 0.00 in   Clear
12:53 PM 82.0 °F 85.5 °F 69.1 °F 65% 30.01 in 10.0 mi East 12.7 mph - N/A   Overcast
1:37 PM 82.4 °F 87.2 °F 71.6 °F 70% 30.00 in 10.0 mi ESE 13.8 mph 24.2 mph N/A   Overcast
1:53 PM 84.0 °F 89.0 °F 71.1 °F 65% 30.00 in 10.0 mi East 12.7 mph 24.2 mph N/A   Overcast
2:19 PM 78.8 °F - 71.6 °F 78% - 8.0 mi East 12.7 mph - 0.01 in Rain Light Rain
2:53 PM 82.9 °F 86.5 °F 69.1 °F 63% 29.98 in 10.0 mi East 12.7 mph - 0.01 in   Mostly Cloudy
3:53 PM 81.0 °F 84.1 °F 69.1 °F 67% 29.98 in 10.0 mi East 16.1 mph 24.2 mph N/A   Clear
4:53 PM 81.0 °F 84.1 °F 69.1 °F 67% 29.98 in 10.0 mi ESE 13.8 mph - N/A   Scattered Clouds
5:53 PM 79.0 °F - 66.9 °F 66% 29.99 in 10.0 mi East 15.0 mph - N/A   Clear
6:53 PM 77.0 °F - 69.1 °F 76% 30.00 in 10.0 mi East 11.5 mph - N/A   Clear
7:53 PM 77.0 °F - 69.1 °F 76% 30.02 in 10.0 mi East 15.0 mph - N/A   Clear
8:53 PM 77.0 °F - 69.1 °F 76% 30.03 in 10.0 mi East 11.5 mph - N/A   Clear
10:53 PM 77.0 °F - 69.1 °F 76% 30.03 in 10.0 mi East 13.8 mph - N/A   Clear
11:53 PM 75.9 °F - 68.0 °F 76% 30.03 in 10.0 mi East 10.4 mph - N/A   Clear